Location: Epalinges
(46.5518°N, 6.6683°E)
Time: 18:42:27
(UTC+00:00)

SL-16 R/B - Pass Details

Date: 20 June 2021
Orbit: 985 x 1007 km, 99.5° (Epoch: 22 July)

Event Time Altitude Azimuth Distance (km) Brightness Sun altitude
Exits shadow 02:44:57 - 225° (SW) 2,807 4.2 -7.9°
Reaches altitude 10° 02:45:10 10° 226° (SW) 2,755 4.2 -7.9°
Maximum altitude 02:49:25 19° 270° (W) 2,165 3.9 -7.4°
Drops below altitude 10° 02:53:41 10° 314° (NW) 2,758 4.9 -6.9°
Sets 02:56:59 0° 332° (NNW) 3,709 5.8 -6.5°
